Location: Chapel Hill
(35.9134°N, 79.0560°W)
Time: 09:43:03
(UTC-04:00)

ACS3 Solar Sail - Pass Details

Date: 19 June 2024
Orbit: 992 x 1023 km, 97.4° (Epoch: 11 July)

Event Time Altitude Azimuth Distance (km) Brightness Sun altitude
Exits shadow 22:32:38 31° 140° (SE) 1,663 5.4 -19.0°
Maximum altitude 22:35:34 60° 74° (ENE) 1,137 5.0 -19.3°
Drops below altitude 10° 22:41:40 10° 357° (N) 2,766 7.9 -20.1°
Sets 22:44:10 0° 354° (N) 3,716 8.8 -20.4°
